Regional Weather Roundup
Issued by NWS

Home | Current Version | Previous Version | Text Only | Print | Product List | Glossary Off
Versions: 1 2 3 4 5 6 7 8 9 10 11 12 13 14 15 16 17 18 19 20 21 22 23 24 25 26 27 28 29 30 31 32 33 34 35 36 37 38 39 40 41 42 43 44 45 46 47 48 49 50

000
ASUS45 KCYS 041910
RWRWY

WYOMING REGIONAL WEATHER ROUNDUP
NATIONAL WEATHER SERVICE CHEYENNE WY
100 PM MDT TUE AUG 04 2015

NOTE:  "FAIR" INDICATES FEW OR NO CLOUDS BELOW 12,000 FEET
WITH NO SIGNIFICANT WEATHER AND/OR OBSTRUCTIONS TO VISIBILITY.

WYZ001-042000-
YELLOWSTONE NATIONAL PARK

CITY           SKY/WX    TMP DP  RH WIND       PRES   REMARKS
LK YELLOWSTONE   N/A     58  48  69 VRB6      30.29S
W YELLOWSTONE  NOT AVBL

$$
WYZ002>013-054>058-071-098>099-042000-
NORTHERN WYOMING

CITY           SKY/WX    TMP DP  RH WIND       PRES   REMARKS
JACKSON        MOSUNNY   72  48  43 S5        30.20F
CODY           CLOUDY    66  55  68 NE8       30.10S
GREYBULL       CLOUDY    78  50  37 NW20G26   30.01R
WORLAND        FAIR      80  50  34 NW13      30.02R
SHERIDAN       FAIR      79  53  40 NW16G25   29.99R
BUFFALO        PTSUNNY   77  50  38 N21       30.03R
GILLETTE       FAIR      81  54  39 SW6       29.98S
HULETT         CLOUDY    79  55  44 N5        29.99R
NEWCASTLE      FAIR      77  54  44 SE9       30.00S

$$
WYZ014>020-022>026-101>103-042000-
CENTRAL WYOMING

CITY           SKY/WX    TMP DP  RH WIND       PRES   REMARKS
BIG PINEY      FAIR      73  44  35 N12G21    30.25S
PINEDALE       FAIR      70  45  40 NW20G26   30.26S
DUBOIS         MOCLDY    68  43  40 N13G20    30.22S
LANDER         PTSUNNY   78  48  34 N7        30.09S
RIVERTON       FAIR      81  47  30 W9        30.09S
CASPER         PTSUNNY   76  52  43 W8        30.05F
DOUGLAS        PTSUNNY   78  53  41 W8        30.04R

$$
WYZ021-027>030-104>119-042000-
SOUTHERN WYOMING

CITY           SKY/WX    TMP DP  RH WIND       PRES   REMARKS
EVANSTON       FAIR      74  46  36 W13G20    30.29F
KEMMERER       FAIR      70  46  43 SW13G22   30.30S
FORT BRIDGER   CLEAR     75  48  38 NW10G17   30.30F
ROCK SPRINGS   FAIR      73  47  39 W15G24    30.23F
DIXON          FAIR      76  44  32 W17G24    30.25F
RAWLINS        PTSUNNY   72  48  42 W22G29    30.19F
SARATOGA       CLOUDY    70  46  43 W25G31    30.23S
LARAMIE        CLOUDY    66  47  50 W22G38    30.20F
CHEYENNE       PTSUNNY   76  47  35 W25G31    30.12F
TORRINGTON     PTSUNNY   78  52  40 MISG      29.97F
PINE BLUFFS    CLOUDY    75  45  33 W14       30.07S

$$



USA.gov is the U.S. government's official web portal to all federal, state and local government web resources and services.